[[{"header":{"parameterUnit":"m.s-1","parameterCategory":1,"la1":30.2991,"la2":30.254,"lo1":-89.0895,"lo2":-89.0444,"dy":0.0017,"dx":0.0017,"nx":28,"ny":28,"refTime":"2025-11-11T09:00:00:Z","depth":0,"parameterNumber":2,"parameterNumberName":"U-component_of_WINDS"},"data":[0,0,0,0,0,0,0,0,0,0,0,0,0,0,0,0,0,0,0,0,0,0,0,0,0,0,0,0,0,0,0,0,0,0,0,0,0,0,0,0,0,0,0,0,0,0,0,0,0,0,0,0,0,0,0,0,0,0,-2.0256,-2.0256,0,-2.0211,-2.021,-2.021,-2.0129,-2.0127,-2.0126,-2.0124,-2.0079,-2.0079,-2.0079,0,0,0,0,0,0,0,0,0,0,0,0,0,-2.0276,-2.0276,-2.0256,-2.0256,-2.0255,-2.0211,-2.021,-2.021,-2.0129,-2.0127,-2.0125,-2.0124,-2.0079,-2.0079,-2.0079,0,0,0,0,0,0,0,0,0,0,0,0,0,-2.0253,-2.0276,-2.0257,-2.021,-2.0205,-2.0211,-2.021,-2.0209,-2.013,-2.0127,-2.0125,-2.0123,-2.0078,-2.0079,-2.0079,-2.0127,0,0,-2.008,-2.008,0,0,0,0,0,0,0,0,-2.0254,-2.0252,-2.0217,-2.0213,-2.0208,-2.0173,-2.02,-2.0182,-2.013,-2.0158,-2.0124,-2.0122,-2.0112,-2.0109,-2.0106,-2.0125,-2.0123,-2.008,-2.008,-2.008,-2.0081,0,0,0,0,0,0,0,-2.0256,-2.0254,-2.0238,-2.0217,-2.0211,-2.0192,-2.0186,-2.0196,-2.0149,-2.0156,-2.015,-2.0145,-2.0109,-2.0106,-2.0104,-2.0122,-2.008,-2.008,-2.0081,-2.0081,-2.018,-2.0182,0,0,0,0,0,0,-2.0264,-2.0255,-2.024,-2.0237,-2.0226,-2.0193,-2.0187,-2.0187,-2.0148,-2.014,-2.0147,-2.0142,-2.0106,-2.0104,-2.0102,-2.0156,-2.008,-2.0081,-2.0081,-2.0177,-2.018,-2.0183,0,0,0,0,0,0,-2.0265,-2.0263,-2.0242,-2.0245,-2.024,-2.0195,-2.0196,-2.0187,-2.0184,-2.0142,-2.0133,-2.0153,-2.0105,-2.0102,-2.0122,-2.0153,-2.0081,-2.0081,-2.0174,-2.0178,-2.0181,-2.0264,0,0,0,0,0,0,-2.0266,-2.0264,-2.0281,-2.0246,-2.024,-2.0261,-2.0198,-2.0188,-2.0184,-2.0176,-2.0145,-2.0137,-2.0103,-2.0122,-2.0122,-2.0153,-2.0081,-2.0171,-2.0176,-2.018,-2.0259,-2.027,-2.0281,0,0,0,0,0,-2.0267,-2.0307,-2.0283,-2.0281,-2.0261,-2.0263,-2.026,-2.0219,-2.0187,-2.0204,-2.0178,-2.0138,-2.015,-2.0124,-2.0124,-2.0155,-2.0169,-2.0175,-2.018,-2.0254,-2.0268,-2.028,0,0,0,0,0,0,-2.0347,-2.0301,-2.0274,-2.0303,-2.0288,-2.025,-2.027,-2.0236,-2.0229,-2.0222,-2.0172,-2.0166,-2.0192,-2.0176,-2.0148,-2.02,-2.0154,-2.0159,-2.021,-2.0223,-2.0234,-2.0237,-2.0082,0,0,0,0,0,-2.0368,-2.0374,-2.0333,-2.0363,-2.0357,-2.0315,-2.0315,-2.0285,-2.0267,-2.026,-2.0234,-2.0219,-2.0219,-2.022,-2.0218,-2.0257,-2.0249,-2.0278,-2.0289,-2.0298,-2.0303,-2.0323,-2.0335,-2.0201,-2.0201,-2.0201,0,0,-2.0412,-2.0388,-2.0394,-2.0379,-2.0363,-2.037,-2.031,-2.032,-2.0325,-2.0261,-2.0278,-2.026,-2.0239,-2.0269,-2.028,-2.0256,-2.0339,-2.0305,-2.0313,-2.0313,-2.033,-2.0343,-2.0354,-2.0205,-2.0204,-2.0203,0,0,-2.0495,-2.0477,-2.05,-2.0486,-2.0464,-2.0436,-2.0442,-2.0409,-2.0394,-2.0411,-2.0363,-2.0369,-2.037,-2.0358,-2.0352,-2.0433,-2.0396,-2.0434,-2.049,-2.051,-2.0521,-2.053,-2.0559,-2.0569,-2.0439,-2.0439,-2.044,0,-2.0552,-2.056,-2.0516,-2.0529,-2.0525,-2.0468,-2.0491,-2.048,-2.0458,-2.0456,-2.043,-2.0431,-2.0413,-2.0439,-2.0459,-2.0456,-2.0461,-2.0436,-2.0523,-2.0531,-2.0539,-2.0566,-2.0577,-2.0444,-2.0444,-2.0443,-2.0443,0,-2.0632,-2.0639,-2.066,-2.064,-2.0638,-2.0657,-2.0616,-2.0619,-2.059,-2.0566,-2.0584,-2.0561,-2.0553,-2.0558,-2.0529,-2.058,-2.0566,-2.0532,-2.0483,-2.0558,-2.0582,-2.0592,-2.0451,-2.0449,-2.0448,-2.0446,0,0,-2.0762,-2.0719,-2.0728,-2.0719,-2.069,-2.0695,-2.0712,-2.0704,-2.0708,-2.0696,-2.0709,-2.0712,-2.0681,-2.0674,-2.0644,-2.0662,-2.0727,-2.0625,-2.0624,-2.0645,-2.0782,-2.0807,-2.082,-2.0704,-2.0705,-2.0707,-2.0784,0,-2.0839,-2.0863,-2.0825,-2.0859,-2.0865,-2.0812,-2.0827,-2.0812,-2.079,-2.0793,-2.0769,-2.0772,-2.073,-2.0726,-2.0741,-2.0716,-2.0754,-2.071,-2.0715,-2.0716,-2.0721,-2.0833,-2.0859,-2.0932,-2.0793,-2.0795,-2.0796,0,-2.093,-2.0923,-2.0957,-2.0928,-2.0929,-2.0943,-2.0933,-2.0936,-2.0919,-2.0902,-2.0896,-2.086,-2.0875,-2.083,-2.085,-2.0821,-2.0821,-2.081,-2.0812,-2.081,-2.0759,-2.0833,-2.0955,-2.0966,-2.081,-2.0809,-2.0808,0,-2.1022,-2.102,-2.104,-2.1034,-2.1001,-2.1012,-2.0998,-2.0978,-2.0977,-2.097,-2.0968,-2.0963,-2.096,-2.0957,-2.0922,-2.0892,-2.0947,-2.0898,-2.0933,-2.0934,-2.0946,-2.0945,-2.1069,-2.0948,-2.0948,-2.0948,-2.0947,0,-2.111,-2.1133,-2.1081,-2.1093,-2.1118,-2.1075,-2.1101,-2.1082,-2.1066,-2.1074,-2.1029,-2.1038,-2.0991,-2.0996,-2.0969,-2.099,-2.0989,-2.0976,-2.0968,-2.0979,-2.0981,-2.0978,-2.0971,-2.095,-2.095,-2.0949,-2.0949,0,-2.1215,-2.1181,-2.12,-2.1167,-2.116,-2.118,-2.1152,-2.1163,-2.1139,-2.115,-2.1151,-2.1113,-2.1116,-2.1081,-2.1078,-2.1059,-2.1093,-2.1077,-2.1099,-2.1093,-2.113,-2.1127,-2.1255,-2.127,-2.114,-2.1142,-2.1143,0,-2.1273,-2.129,-2.1259,-2.1262,-2.1251,-2.1255,-2.1254,-2.1213,-2.1213,-2.1195,-2.1209,-2.1208,-2.1205,-2.1213,-2.1186,-2.1183,-2.1166,-2.1211,-2.1165,-2.1176,-2.1166,-2.1165,-2.1167,-2.1221,-2.1222,-2.1223,-2.1225,0,-2.138,-2.1363,-2.1362,-2.1356,-2.1356,-2.1349,-2.1339,-2.1344,-2.13,-2.1303,-2.1305,-2.1303,-2.13,-2.13,-2.1293,-2.128,-2.1245,-2.124,-2.1247,-2.1258,-2.127,-2.1264,-2.1124,-2.1236,-2.1235,-2.1234,-2.1234,-2.1233,-2.1463,-2.1476,-2.1456,-2.1457,-2.1446,-2.1438,-2.1447,-2.1425,-2.1426,-2.142,-2.1396,-2.1403,-2.1387,-2.1373,-2.1364,-2.1369,-2.1347,-2.1358,-2.1361,-2.1364,-2.1371,-2.1271,-2.1368,-2.1367,-2.1367,-2.1366,-2.1366,0,-2.1567,-2.1552,-2.1554,-2.1542,-2.1543,-2.1511,-2.1499,-2.1503,-2.1509,-2.1497,-2.1495,-2.1499,-2.15,-2.1473,-2.1471,-2.148,-2.1465,-2.1481,-2.1479,-2.1477,-2.1391,-2.1384,-2.1494,-2.1494,-2.1494,-2.1494,-2.1494,-2.1494,-2.1621,-2.1641,-2.1621,-2.1636,-2.1621,-2.1627,-2.1623,-2.1616,-2.1606,-2.1612,-2.1612,-2.1596,-2.1578,-2.1574,-2.1573,-2.1566,-2.1567,-2.1589,-2.1576,-2.1495,-2.1483,-2.1471,-2.1464,-2.1589,-2.1589,-2.1661,-2.1662,-2.1662]},{"header":{"parameterUnit":"m.s-1","parameterCategory":1,"la1":30.2991,"la2":30.254,"lo1":-89.0895,"lo2":-89.0444,"dy":0.0017,"dx":0.0017,"nx":28,"ny":28,"refTime":"2025-11-11T09:00:00:Z","depth":0,"parameterNumber":3,"parameterNumberName":"V-component_of_WINDS"},"data":[0,0,0,0,0,0,0,0,0,0,0,0,0,0,0,0,0,0,0,0,0,0,0,0,0,0,0,0,0,0,0,0,0,0,0,0,0,0,0,0,0,0,0,0,0,0,0,0,0,0,0,0,0,0,0,0,0,0,1.395,1.395,0,1.3922,1.3922,1.3922,1.3955,1.3956,1.3958,1.3959,1.3926,1.3924,1.3922,0,0,0,0,0,0,0,0,0,0,0,0,0,1.4028,1.4026,1.395,1.395,1.3949,1.3922,1.3922,1.3922,1.3955,1.3956,1.3958,1.3959,1.3927,1.3924,1.3922,0,0,0,0,0,0,0,0,0,0,0,0,0,1.3996,1.4026,1.395,1.3963,1.3963,1.3923,1.3922,1.3922,1.3955,1.3956,1.3958,1.396,1.3928,1.3925,1.3922,1.3866,0,0,1.3912,1.3911,0,0,0,0,0,0,0,0,1.3998,1.3993,1.3961,1.3962,1.3963,1.3944,1.3938,1.3903,1.3954,1.3958,1.3959,1.3961,1.393,1.3927,1.3918,1.3864,1.3863,1.3912,1.391,1.3909,1.3908,0,0,0,0,0,0,0,1.4,1.3995,1.3939,1.3961,1.3961,1.3969,1.3966,1.3931,1.3934,1.3958,1.396,1.3956,1.3931,1.3921,1.3917,1.3862,1.3912,1.3909,1.3908,1.3906,1.3762,1.376,0,0,0,0,0,0,1.4001,1.3996,1.394,1.3938,1.3985,1.3966,1.3963,1.3948,1.3934,1.3934,1.3955,1.3958,1.3925,1.3921,1.3916,1.385,1.3909,1.3906,1.3904,1.3764,1.3762,1.376,0,0,0,0,0,0,1.4003,1.3996,1.3941,1.3968,1.3961,1.3962,1.3945,1.3947,1.3936,1.3932,1.3933,1.3944,1.3926,1.3921,1.3879,1.385,1.3905,1.3902,1.3766,1.3763,1.3761,1.3718,0,0,0,0,0,0,1.4005,1.3996,1.3976,1.3967,1.396,1.3904,1.3944,1.3945,1.3931,1.3935,1.3922,1.3922,1.3927,1.3883,1.3876,1.3846,1.39,1.3769,1.3765,1.3762,1.3722,1.3713,1.3707,0,0,0,0,0,1.4008,1.3964,1.3975,1.3967,1.3934,1.3903,1.3898,1.3907,1.3929,1.3908,1.3906,1.3922,1.3854,1.3878,1.387,1.384,1.3771,1.3766,1.3762,1.3725,1.3715,1.3707,0,0,0,0,0,0,1.3967,1.3963,1.3975,1.3927,1.3915,1.3908,1.3882,1.3896,1.3876,1.3881,1.3891,1.3888,1.3843,1.3837,1.3864,1.3785,1.3816,1.381,1.3791,1.3781,1.3774,1.3776,1.3897,0,0,0,0,0,1.3952,1.3928,1.3925,1.3883,1.3877,1.388,1.3867,1.3875,1.3862,1.3857,1.3852,1.3838,1.3814,1.3797,1.3775,1.3721,1.3719,1.3696,1.3689,1.3683,1.3677,1.3649,1.3639,1.3745,1.3745,1.3745,0,0,1.3922,1.3917,1.39,1.3875,1.3867,1.3841,1.3876,1.3846,1.3827,1.3852,1.3813,1.3808,1.3794,1.3746,1.3725,1.374,1.3647,1.3677,1.3672,1.367,1.3643,1.3633,1.3624,1.3742,1.3742,1.3743,0,0,1.3853,1.3847,1.3811,1.3803,1.3791,1.3794,1.3785,1.3777,1.3776,1.3737,1.3755,1.3732,1.369,1.3679,1.3668,1.3597,1.3611,1.3589,1.3549,1.3522,1.3513,1.3506,1.3481,1.3471,1.3583,1.3583,1.3583,0,1.3816,1.3778,1.3791,1.3761,1.3749,1.3773,1.3737,1.3728,1.3708,1.3699,1.3717,1.3665,1.3657,1.3607,1.359,1.3581,1.3571,1.359,1.3514,1.3506,1.35,1.3476,1.3466,1.358,1.3581,1.3581,1.3581,0,1.3734,1.3708,1.368,1.3663,1.3648,1.3615,1.3622,1.3605,1.3615,1.3615,1.3576,1.3567,1.3543,1.3532,1.354,1.3484,1.3494,1.3512,1.3543,1.3487,1.3464,1.3455,1.3577,1.3578,1.3578,1.3579,0,0,1.3636,1.3628,1.3618,1.3611,1.36,1.358,1.3548,1.3526,1.3512,1.3498,1.3471,1.3436,1.3454,1.3441,1.3448,1.3424,1.3369,1.3446,1.3446,1.3432,1.3306,1.3292,1.3281,1.3379,1.3377,1.3376,1.3308,0,1.3568,1.3514,1.3525,1.3472,1.3448,1.3471,1.3443,1.3433,1.3433,1.3412,1.3412,1.3387,1.3412,1.3405,1.3382,1.338,1.3344,1.3386,1.3353,1.3352,1.3356,1.327,1.3254,1.319,1.3299,1.3297,1.3296,0,1.348,1.3465,1.341,1.3404,1.3395,1.337,1.3352,1.3332,1.3321,1.3323,1.331,1.3322,1.3289,1.3322,1.3277,1.3305,1.3293,1.329,1.3288,1.3284,1.332,1.3264,1.317,1.316,1.3283,1.3284,1.3285,0,1.3415,1.338,1.3344,1.3337,1.3329,1.3311,1.3307,1.3298,1.3285,1.3269,1.3261,1.324,1.3229,1.3213,1.3219,1.3242,1.3173,1.3206,1.3173,1.3173,1.3157,1.3157,1.3059,1.3149,1.3149,1.315,1.315,0,1.3336,1.3302,1.3314,1.3291,1.3254,1.3266,1.3228,1.3226,1.3219,1.3195,1.3214,1.3191,1.3201,1.3179,1.3184,1.3146,1.3141,1.3141,1.3142,1.3139,1.3139,1.313,1.3135,1.3147,1.3148,1.3148,1.3148,0,1.3256,1.3264,1.3225,1.3222,1.322,1.3192,1.3189,1.3168,1.317,1.3141,1.3134,1.3137,1.3113,1.3118,1.309,1.3093,1.3046,1.3053,1.305,1.3051,1.3018,1.3021,1.2911,1.2897,1.2996,1.2995,1.2994,0,1.3206,1.318,1.3175,1.3162,1.3157,1.3134,1.3122,1.3134,1.312,1.3106,1.3086,1.3063,1.3046,1.3005,1.3004,1.2983,1.2989,1.2952,1.2986,1.2984,1.2989,1.299,1.2988,1.2945,1.2944,1.2943,1.2942,0,1.3115,1.3121,1.3103,1.3086,1.3071,1.3058,1.3046,1.3034,1.3045,1.3028,1.3004,1.2991,1.2963,1.294,1.2921,1.2916,1.293,1.2932,1.2923,1.2919,1.2918,1.2918,1.3031,1.2934,1.2935,1.2935,1.2936,1.2936,1.3048,1.3027,1.3021,1.3,1.2993,1.2983,1.2963,1.2963,1.2944,1.2924,1.2932,1.2904,1.2895,1.2871,1.2863,1.2841,1.2855,1.2842,1.2839,1.2836,1.2832,1.2923,1.2838,1.2838,1.2838,1.2838,1.2839,0,1.2959,1.2956,1.2937,1.2922,1.2906,1.2923,1.2912,1.2897,1.2873,1.2864,1.2847,1.2819,1.2797,1.2795,1.2775,1.2757,1.2764,1.2752,1.2753,1.2751,1.282,1.283,1.2747,1.2747,1.2747,1.2747,1.2747,1.2747,1.291,1.2875,1.288,1.2842,1.2839,1.2814,1.2806,1.2796,1.2789,1.2758,1.274,1.274,1.2734,1.2713,1.2694,1.2694,1.2685,1.267,1.2673,1.2737,1.2746,1.2755,1.2764,1.2668,1.2668,1.2605,1.2605,1.2604]}]]